Weather observations for the past three days for
Chickasha, Chickasha Municipal Airport
Imperial (Metric)
Date Time (cdt) Wind (mph) Vis. (mi.) Weather Sky Cond. Temperature (ºF) Relative Humidity Wind Chill (°F) Heat Index (°F) Pressure Precipitation (in)
Air Dwpt 6 hour altimeter (in) sea level (mb) 1 hr 3 hr 6 hr
Max. Min.
22 15:55 Calm 10.00 Fair CLR 83.1 62.6 50% 84 30 0.0
22 15:35 Calm 7.00 Fair CLR 82.4 62.4 51% 83 30 0.0
22 15:15 Calm 10.00 Fair CLR 82 61.9 51% 83 30.01 0.0
22 14:55 Calm 10.00 Partly Cloudy SCT045 82.8 62.4 50% 84 30.02 0.0
22 14:35 Calm 10.00 Fair CLR 81.3 63.3 54% 83 30.03 0.0
22 14:15 Calm 10.00 Partly Cloudy SCT041 81.5 63.5 54% 83 30.03 0.0
22 13:55 Calm 10.00 Partly Cloudy SCT041 80.1 63.3 57% 82 30.04 0.0
22 13:35 Calm 10.00 Partly Cloudy SCT039 79.7 63 57% 81 30.05 0.0
22 13:15 Calm 10.00 Fair CLR 79.7 62.6 56% 81 30.05 0.0
22 12:55 Calm 7.00 Fair CLR 79.7 63 80.6 67.5 57% 81 30.06 0.0
22 12:35 Calm 10.00 Fair CLR 79 63.5 59% 81 30.06 0.0
22 12:15 Calm 10.00 Fair CLR 78.3 63.9 61% 80 30.06 0.0
22 11:55 NE 3 10.00 Fair CLR 78.3 65.1 64% 80 30.06 0.0
22 11:35 Calm 10.00 Fair CLR 77.4 65.3 66% 79 30.06 0.0
22 11:15 Calm 10.00 Fair CLR 76.1 65.1 69% 78 30.06 0.0
22 10:55 NE 3 10.00 Fair CLR 75 66.2 74% 76 30.06 0.0
22 10:35 Calm 10.00 Fair CLR 73.8 66.9 79% 30.06 0.0
22 10:15 Calm 10.00 Fair CLR 73 66.6 80% 30.07 0.0
22 09:55 Calm 10.00 Fair CLR 72.3 66.4 82% 30.06 0.0
22 09:35 N 3 10.00 Fair CLR 72 67.1 85% 30.06 0.0
22 09:15 Calm 10.00 Partly Cloudy SCT008 71.2 67.3 87% 30.06 0.0
22 08:55 Calm 10.00 Partly Cloudy SCT006 70.9 68 91% 30.05 0.0
22 08:35 Calm 10.00 Partly Cloudy SCT006 70.3 68.2 93% 30.05 0.0
22 08:15 Calm 10.00 Fair CLR 69.1 68.2 97% 30.05 0.0
22 07:55 Calm 10.00 Fair CLR 68.4 67.5 97% 30.05 0.0
22 07:35 Calm 10.00 Fair CLR 68 67.3 98% 30.05 0.0
22 07:15 Calm 10.00 Fair CLR 67.8 67.3 98% 30.05 0.0
22 06:55 Calm 10.00 Fair CLR 67.5 66.9 71.4 66.7 98% 30.04 0.0
22 06:35 Calm 10.00 Fair CLR 66.7 66.4 99% 30.04 0.0
22 06:15 Calm 10.00 Fair CLR 66.7 66.4 99% 30.04 0.0
22 05:55 Calm 10.00 Fair CLR 67.3 66.7 98% 30.03 0.0
22 05:35 Calm 10.00 Fair CLR 67.6 67.1 98% 30.03 0.0
22 05:15 Calm 10.00 Fair CLR 67.6 66.9 98% 30.02 0.0
22 04:55 Calm 10.00 Fair CLR 68.2 67.5 98% 30.01 0.0
22 04:35 Calm 10.00 Fair CLR 68.2 67.3 97% 30 0.0
22 04:15 Calm 10.00 Fair CLR 68.7 67.8 97% 30 0.0
22 03:55 Calm 10.00 Fair CLR 69.3 68.2 96% 30.01 0.0
22 03:35 Calm 10.00 Fair CLR 69.1 68 96% 30.02 0.0
22 03:15 Calm 10.00 Fair CLR 69.3 68.2 96% 30.02 0.0
22 02:55 Calm 10.00 Fair CLR 69.3 68.2 96% 30.03 0.0
22 02:35 Calm 10.00 Fair CLR 69.4 68.2 96% 30.04 0.0
22 02:15 Calm 10.00 Fair CLR 70.2 68.4 94% 30.04 0.0
22 01:55 Calm 10.00 Partly Cloudy SCT019 70.7 68.5 93% 30.04 0.0
22 01:35 Calm 10.00 Fair CLR 71.1 68.9 93% 30.05 0.0
22 01:15 Calm 10.00 Fair CLR 70.7 68.5 93% 30.05 0.0
22 00:55 Calm 10.00 Fair CLR 71.1 68.5 83.3 70.7 92% 30.05 0.0
22 00:35 Calm 10.00 Fair CLR 71.4 68.4 90% 30.05 0.0
22 00:15 Calm 10.00 Fair CLR 70.9 68.4 92% 30.05 0.0
21 23:55 Calm 10.00 Fair CLR 71.6 68.4 90% 30.05 0.0
21 23:35 Calm 10.00 Fair CLR 71.6 68.5 90% 30.05 0.0
21 23:15 Calm 10.00 Fair CLR 72.1 68.5 89% 30.05 0.0
21 22:55 Calm 10.00 Fair CLR 71.8 68.4 89% 30.04 0.0
21 22:35 Calm 10.00 Fair CLR 72.5 68.4 87% 30.04 0.0
21 22:15 Calm 10.00 Fair CLR 72.7 68.4 86% 30.03 0.0
21 21:55 Calm 10.00 Fair CLR 73 68.2 85% 30.02 0.0
21 21:35 Calm 10.00 Fair CLR 73.4 68.4 84% 30.02 0.0
21 21:15 Calm 10.00 Fair CLR 74.3 68.4 82% 30.01 0.0
21 20:55 Calm 10.00 Fair CLR 75.7 68.2 77% 77 30.02 0.0
21 20:35 Calm 10.00 Fair CLR 77.2 68.2 74% 79 30.01 0.0
21 20:15 Calm 7.00 Fair CLR 79.2 67.6 68% 81 30 0.0
21 19:55 Calm 10.00 Fair CLR 80.6 66.7 63% 83 29.99 0.0
21 19:35 Calm 10.00 Partly Cloudy SCT038 SCT050 82 67.6 62% 85 29.99 0.0
21 19:15 Calm 10.00 Partly Cloudy SCT038 83.1 67.6 60% 86 29.99 0.0
21 18:55 Calm 10.00 Partly Cloudy SCT039 82.4 66.4 84.4 81.3 58% 85 29.99 0.0
21 18:35 Calm 10.00 Partly Cloudy SCT037 82.9 67.1 59% 86 29.99 0.0
21 18:15 Calm 10.00 Partly Cloudy SCT037 83.8 67.5 58% 87 29.98 0.0
21 17:55 N 9 10.00 Fair CLR 83.5 68.2 60% 87 29.98 0.0
21 17:35 Calm 10.00 Partly Cloudy SCT036 84.2 68 58% 87 29.98 0.0
21 17:15 N 3 G 21 10.00 Fair CLR 83.5 68.2 60% 87 29.99 0.0
21 16:55 N 5 10.00 Mostly Cloudy SCT034 SCT040 BKN075 82.2 67.5 61% 85 29.99 0.0
21 16:35 N 8 G 17 10.00 Mostly Cloudy SCT034 BKN075 81.5 67.6 63% 84 29.99 0.0
21 15:55 N 10 G 20 10.00 Partly Cloudy SCT032 SCT039 82.8 68.9 63% 86 29.99 0.0
21 15:35 N 9 G 16 10.00 Partly Cloudy SCT032 82 68.2 63% 85 30 0.0
21 15:15 N 18 10.00 Partly Cloudy SCT032 83.5 68.9 62% 87 30 0.0
21 14:55 N 15 G 24 10.00 Partly Cloudy SCT030 SCT060 83.1 69.4 63% 87 30.01 0.0
21 14:35 N 7 G 24 10.00 Mostly Cloudy SCT030 BKN036 BKN047 81.9 70.2 68% 86 30.01 0.0
21 14:15 N 15 10.00 Overcast BKN028 BKN037 OVC075 82.8 70.5 67% 87 30.02 0.0
21 13:55 N 17 G 21 10.00 Mostly Cloudy SCT028 BKN033 BKN042 83.3 70.7 66% 88 30.02 0.0
21 13:35 Calm 10.00 Mostly Cloudy SCT034 BKN041 BKN065 83.1 70.9 67% 88 30.02 0.0
21 13:15 Calm 10.00 Mostly Cloudy BKN031 BKN039 83.1 68.5 62% 86 30.02 0.0
21 12:55 Calm 10.00 Partly Cloudy SCT027 SCT041 SCT060 83.7 70.3 84 69.6 64% 88 30.02 0.0
21 12:35 Calm 10.00 Partly Cloudy SCT027 82.6 70.2 66% 87 30.03 0.0
21 12:15 Calm 10.00 Mostly Cloudy SCT022 BKN034 81.9 71.2 70% 86 30.02 0.0
21 11:55 Calm 10.00 Overcast BKN022 OVC032 79.3 71.6 77% 83 30.04 0.0
21 11:35 Calm 10.00 Overcast SCT020 BKN026 OVC032 78.6 71.4 79% 81 30.04 0.0
21 11:15 Calm 5.00 Overcast with Haze BKN024 OVC029 78.3 71.1 79% 81 30.04 0.0
21 10:55 Calm 10.00 Overcast BKN020 OVC025 78.3 70.7 78% 81 30.04 0.0
21 10:35 Calm 10.00 Overcast BKN016 OVC021 77.2 70.5 80% 79 30.04 0.0
21 10:15 Calm 10.00 Overcast OVC014 77.2 70.3 80% 79 30.04 0.0
21 09:55 Calm 10.00 Overcast OVC014 76.8 70.7 81% 78 30.03 0.0
21 09:35 Calm 10.00 Mostly Cloudy BKN014 BKN028 BKN039 75.6 69.8 82% 76 30.04 0.0
21 09:15 Calm 10.00 Mostly Cloudy BKN030 76.1 70.5 83% 77 30.04 0.0
21 08:55 Calm 10.00 Overcast BKN030 OVC035 74.5 69.6 85% 30.03 0.0
21 08:35 Calm 10.00 Partly Cloudy SCT035 SCT041 74.5 70.2 86% 30.03 0.0
21 08:15 Calm 10.00 Partly Cloudy SCT045 SCT055 73.2 70 90% 30.02 0.0
21 07:55 Calm 10.00 Overcast SCT045 BKN055 OVC070 72.3 70 92% 30.03 0.0
21 07:35 Calm 10.00 Mostly Cloudy SCT040 BKN055 BKN070 71.6 69.8 94% 30.03 0.0
21 07:15 Calm 10.00 Mostly Cloudy SCT040 SCT070 BKN080 70.9 69.6 96% 30.02 0.0
21 06:55 Calm 10.00 Partly Cloudy SCT080 69.6 68.5 76.8 69.4 96% 30.02 0.0
21 06:35 Calm 10.00 Fair CLR 70 68.5 95% 30.01 0.0
21 06:15 Calm 10.00 Fair CLR 70 68.4 95% 30 0.0
21 05:55 Calm 10.00 Fair CLR 70.5 68.7 94% 30 0.0
21 05:35 Calm 10.00 Partly Cloudy SCT080 70.3 68.5 94% 29.99 0.0
21 05:15 Calm 10.00 Partly Cloudy SCT080 70.5 68.4 93% 29.99 0.0
21 04:55 Calm 10.00 Mostly Cloudy BKN080 71.6 68.5 90% 29.99 0.0
21 04:35 Calm 10.00 Fair CLR 71.8 68.5 90% 29.99 0.0
21 04:15 Calm 10.00 Fair CLR 71.8 68.4 89% 29.98 0.0
21 03:55 Calm 10.00 Fair CLR 72 68.4 89% 29.98 0.0
21 03:35 Calm 10.00 Thunderstorm in Vicinity CLR 71.4 68.5 91% 29.98 0.0
21 03:15 Calm 10.00 Fair CLR 71.6 68.4 90% 29.98 0.0
21 02:55 Calm 10.00 Fair CLR 72.7 68.5 87% 29.99 0.0
21 02:35 Calm 10.00 Partly Cloudy SCT080 SCT095 74.1 68.2 82% 29.99 0.0
21 02:15 Calm 10.00 Mostly Cloudy BKN080 BKN095 74.3 68.9 83% 29.99 0.0
21 01:55 Calm 10.00 Overcast SCT070 OVC090 75.7 68.7 79% 77 30 0.0
21 01:35 Calm 10.00 Mostly Cloudy SCT070 BKN080 BKN120 75.6 69.3 81% 76 30 0.0
21 01:15 SE 3 10.00 Thunderstorm in Vicinity SCT060 SCT080 SCT120 76.6 69.1 78% 78 30 0.0
21 00:55 Calm 10.00 Mostly Cloudy BKN060 BKN080 BKN100 76.3 69.8 88.9 75.2 80% 77 30 0.0
21 00:35 Calm 10.00 Partly Cloudy SCT070 SCT090 75.2 69.8 83% 75 29.99 0.0
21 00:15 Calm 10.00 Partly Cloudy SCT090 75.9 70.2 82% 77 29.99 0.0
20 23:55 Calm 10.00 Fair CLR 77 69.8 79% 79 30 0.0
20 23:35 Calm 10.00 Fair CLR 77.4 70.2 79% 79 30.01 0.0
20 23:15 Calm 10.00 Fair CLR 77.7 70.2 78% 80 30 0.0
20 22:55 Calm 10.00 Fair CLR 77.9 70.2 77% 80 30 0.0
20 22:35 Calm 10.00 Fair CLR 78.3 70.3 77% 81 30 0.0
20 22:15 Calm 10.00 Fair CLR 78.6 70.5 76% 81 29.99 0.0
20 21:55 Calm 10.00 Partly Cloudy SCT100 79.7 70.9 75% 83 29.99 0.0
20 21:35 Calm 10.00 Thunderstorm SCT110 81 70.5 71% 85 29.98 0.0
20 21:15 Calm 10.00 Fair CLR 81.3 71.1 71% 85 29.98 0.0
20 20:55 Calm 10.00 Fair CLR 81.5 72.1 73% 86 29.98 0.0
20 20:35 SE 3 10.00 Fair CLR 82.2 72.1 72% 87 29.97 0.0
20 20:15 SE 8 10.00 Fair CLR 83.1 72.1 70% 89 29.95 0.0
20 19:55 SE 7 10.00 Fair CLR 84.6 72.3 67% 91 29.95 0.0
20 19:35 Calm 10.00 Fair CLR 86 72.3 64% 93 29.95 0.0
20 19:15 Calm 10.00 Fair CLR 88.5 70.2 55% 94 29.95 0.0
20 18:55 Calm 10.00 Fair CLR 88.9 70.5 89.6 79.5 55% 95 29.96 0.0
20 18:35 Calm 10.00 Fair CLR 88.9 69.3 52% 94 29.95 0.0
20 18:15 Calm 10.00 Fair CLR 89.1 68.4 51% 93 29.95 0.0
20 17:55 Calm 10.00 Fair CLR 88.7 69.8 54% 94 29.95 0.0
20 17:35 Calm 10.00 Partly Cloudy SCT046 88.2 68.5 52% 92 29.96 0.0
20 16:55 Calm 10.00 Fair CLR 88.9 70 54% 94 29.97 0.0
20 16:35 Calm 10.00 Fair CLR 88.7 69.4 53% 93 29.97 0.0
20 16:15 Calm 10.00 Fair CLR 87.8 71.2 58% 94 29.98 0.0
20 15:55 Calm 10.00 Fair CLR 88.2 72 59% 95 29.99 0.0
20 15:35 Calm 10.00 Fair CLR 86.9 70.7 59% 92 29.99 0.0
20 15:15 Calm 10.00 Fair CLR 86.4 71.6 62% 92 30 0.0
20 14:55 Calm 10.00 Fair CLR 86.2 69.3 57% 90 30 0.0
20 14:35 Calm 7.00 Fair CLR 86 71.2 61% 92 30.01 0.0
20 14:15 Calm 10.00 Fair CLR 84.9 71.8 65% 91 30.02 0.0
20 13:55 Calm 10.00 Fair CLR 83.8 71.8 67% 89 30.02 0.0
20 13:35 Calm 10.00 Fair CLR 82.6 71.8 70% 88 30.03 0.0
20 13:15 Calm 10.00 Fair CLR 80.8 70.5 71% 84 30.03 0.0
20 12:55 SE 5 10.00 Fair CLR 79.7 71.6 79.9 67.5 76% 83 30.04 0.0 0.4
20 12:35 Calm 10.00 Fair CLR 79 71.4 78% 82 30.04 0.0
20 12:15 Calm 10.00 Fair CLR 77.2 70.3 80% 79 30.05 0.0
20 11:55 SE 3 10.00 Fair CLR 75.2 69.8 83% 75 30.06 0.0
20 11:35 Calm 10.00 Partly Cloudy SCT120 73.6 69.8 88% 30.06 0.0
20 11:15 SE 6 10.00 Partly Cloudy SCT075 SCT120 72.5 68.9 89% 30.06 0.0
20 10:55 Calm 10.00 Overcast BKN075 OVC120 72 69.1 91% 30.07 0.0
20 10:35 Calm 10.00 Mostly Cloudy SCT075 SCT095 BKN110 70.9 68.5 92% 30.07 0.0
20 10:15 Calm 10.00 Thunderstorm in Vicinity SCT075 BKN100 OVC120 69.8 68 94% 30.06 0.0
20 09:55 Calm 10.00 Light Rain SCT075 SCT090 OVC110 69.1 66.4 91% 30.07 0.0 0.05 0.4
20 09:35 Calm 10.00 Light Rain SCT060 BKN080 OVC090 68.5 66.9 95% 30.09 0.0 0.05
20 09:15 Calm 10.00 Heavy Rain BKN060 BKN070 OVC090 69.3 67.8 95% 30.1 0.0 0.01
20 08:55 Calm 10.00 Rain OVC060 68.7 67.1 95% 30.1 0.0 0.01
20 08:35 Calm 10.00 Thunderstorm in Vicinity OVC060 68.4 66.9 95% 30.09 0.0 0.01
20 08:15 Calm 10.00 Overcast OVC060 68.4 66.6 94% 30.08 0.0 0.01
20 07:55 Calm 7.00 Thunderstorm Light Rain in Vicinity Fog/Mist SCT026 BKN065 OVC080 67.5 66.6 97% 30.07 0.0 0.34
20 07:35 Calm 10.00 Thunderstorm Rain in Vicinity SCT047 SCT060 OVC080 68.7 66.6 93% 30.08 0.0 0.1
20 07:15 Calm 10.00 Thunderstorm Light Rain SCT047 BKN060 OVC080 68.5 65.3 89% 30.08 0.0 0.07
20 06:55 Calm 10.00 Thunderstorm Light Rain in Vicinity BKN060 OVC075 71.2 64.4 73.6 66 79% 30.08 0.0
20 06:35 Calm 10.00 Thunderstorm in Vicinity SCT060 OVC085 71.8 62.1 72% 30.07 0.0
20 06:15 Calm 10.00 Mostly Cloudy BKN085 BKN100 68 62.6 83% 30.03 0.0
20 05:55 Calm 10.00 Fair CLR 68.7 62.4 80% 30.01 0.0
20 05:35 Calm 10.00 Fair CLR 69.4 61.9 77% 30.01 0.0
20 05:15 Calm 10.00 Fair CLR 68 62.2 82% 30 0.0
20 04:55 Calm 10.00 Fair CLR 68.5 62.4 81% 30.01 0.0
20 04:35 Calm 2.50 Fair with Haze CLR 69.3 62.2 78% 30.01 0.0
20 04:15 Calm 5.00 Fair with Haze CLR 67.1 62.2 84% 30.01 0.0
20 03:55 Calm 10.00 Fair CLR 66.9 62.4 86% 30.01 0.0
20 03:35 Calm 10.00 Fair CLR 67.1 61.5 82% 30.01 0.0
20 03:15 Calm 10.00 Fair CLR 67.5 61.7 82% 30.01 0.0
20 02:55 Calm 10.00 Fair CLR 67.3 62.1 83% 30 0.0
20 02:35 Calm 10.00 Fair CLR 66.7 61.5 83% 30.01 0.0
20 02:15 Calm 10.00 Fair CLR 68 61.2 79% 30.01 0.0
20 01:55 Calm 10.00 Fair CLR 66.7 60.6 81% 30.01 0.0
20 01:35 Calm 10.00 Fair CLR 70 60.3 71% 30.01 0.0
20 01:15 Calm 10.00 Fair CLR 71.4 60.1 68% 30.02 0.0
20 00:55 Calm 10.00 Fair CLR 71.8 60.4 88.2 71.8 68% 30.01 0.0
20 00:35 Calm 10.00 Fair CLR 73.6 60.1 63% 30.01 0.0
20 00:15 Calm 10.00 Fair CLR 74.1 59.9 61% 30.01 0.0
19 23:55 Calm 10.00 Fair CLR 72.9 59.9 64% 30.01 0.0
19 23:35 Calm 10.00 Fair CLR 72.3 59.9 65% 30.01 0.0
19 23:15 Calm 10.00 Fair CLR 74.8 58.6 57% 30.01 0.0
19 22:55 Calm 10.00 Fair CLR 75.7 58.1 54% 78 30.02 0.0
19 22:35 Calm 10.00 Fair CLR 75.2 57.7 55% 78 30.03 0.0
19 22:15 Calm 10.00 Fair CLR 76.6 57.6 52% 78 30.03 0.0
19 21:55 Calm 10.00 Fair CLR 76.5 57.7 52% 78 30.03 0.0
19 21:35 Calm 10.00 Fair CLR 77.4 58.3 52% 79 30.03 0.0
19 21:15 Calm 10.00 Fair CLR 79.7 56.3 45% 80 30.02 0.0
19 20:55 Calm 10.00 Fair CLR 80.2 58.3 47% 81 30.01 0.0
19 20:35 Calm 10.00 Fair CLR 80.4 59 48% 81 30.01 0.0
19 20:15 Calm 10.00 Fair CLR 81.9 59.9 47% 82 30.01 0.0
19 19:55 Calm 10.00 Fair CLR 85.3 59.4 42% 85 30.01 0.0
19 19:35 Calm 10.00 Fair CLR 86.7 59.2 39% 86 29.99 0.0
19 19:15 Calm 10.00 Fair CLR 87.4 57.2 36% 86 29.99 0.0
19 18:55 Calm 10.00 Fair CLR 88.3 58.5 90.1 84.7 36% 87 29.99 0.0
19 18:35 Calm 10.00 Fair CLR 89.1 59.2 37% 88 29.99 0.0
19 18:15 Calm 10.00 Fair CLR 89.1 58.1 35% 88 29.99 0.0
19 17:55 Calm 10.00 Fair CLR 89.6 57.4 34% 88 30 0.0
19 17:35 Calm 10.00 Fair CLR 89.4 57.9 35% 88 30 0.0
19 17:15 Calm 10.00 Fair CLR 89.6 57.7 34% 88 30.01 0.0
19 16:55 Calm 10.00 Fair CLR 89.8 58.1 34% 89 30.02 0.0
19 16:35 Calm 10.00 Fair CLR 89.4 58.3 35% 88 30.02 0.0
19 16:15 Calm 10.00 Fair CLR 89.1 59.4 37% 88 30.02 0.0
Date Time (cdt) Wind (mph) Vis. (mi.) Weather Sky Cond. Air Dwpt Max. Min. Relative Humidity Wind Chill (°F) Heat Index (°F) altimeter (in) sea level (mb) 1 hr 3 hr 6 hr
6 hour
Temperature (ºF) Pressure Precipitation (in)